Location: Newark
(49.8348°N, 24.0280°E)
Time: 04:31:54
(UTC+00:00)

Vanguard 2 Rocket - All Passes

Search period start: 29 January 2020 00:00
Search period end: 08 February 2020 00:00
Orbit: 554 x 3326 km, 32.9° (Epoch: 28 January)

Date Brightness Start Highest point End Pass type
(mag) Time Alt. Az. Time Alt. Az. Time Alt. Az.
29 Jan - 03:47:24 10° S 03:48:42 11° S 03:50:05 10° SSE visible
29 Jan - 05:58:19 10° SSW 06:00:43 12° S 06:03:34 10° SSE daylight
30 Jan - 04:59:46 10° SSW 05:01:30 12° S 05:03:27 10° SSE visible
31 Jan - 04:02:03 10° S 04:02:24 10° S 04:02:45 10° S visible
